Weather History for KDLZ - July, 2013

Change the Weather History Date:

Friday, July 19, 2013

  Actual Average Record
Temperature  
Mean Temperature 79 °F -  
Max Temperature 89 °F 86 °F - (-1)
Min Temperature 69 °F 61 °F - (-1)
Cooling Degree Days 14    
Growing Degree Days 29 (Base 50)    
Moisture  
Dew Point 69 °F    
Average Humidity 73    
Maximum Humidity 94    
Minimum Humidity 49    
Precipitation  
Precipitation 0.00 in - - ()
Sea Level Pressure  
Sea Level Pressure 29.98 in    
Wind  
Wind Speed 5 mph (SW)    
Max Wind Speed 13 mph    
Max Gust Speed 20 mph    
Visibility 9 miles    
Events Thunderstorm    
Averages and records for this station are not official NWS values.
T = Trace of Precipitation, MM = Missing Value Source: NWS Daily Summary

Daily Weather History Graph

Daily Weather History Graph

Search for Another Location

Airport or City:

Trip Planner

Search our weather history database for the weather conditions in past years. The results will help you decide how hot, cold, wet, or windy it might be!

Date:

Astronomy

Jul. 19, 2013 Rise Set
Actual Time 6:18 AM EDT 8:58 PM EDT
Civil Twilight 5:47 AM EDT 9:29 PM EDT
Nautical Twilight 5:07 AM EDT 10:09 PM EDT
Astronomical Twilight 4:22 AM EDT 10:53 PM EDT
Moon 5:59 PM EDT (7/19) 2:58 AM EDT (7/19)
Length of Visible Light 15h 42m
Length of Day
14h 39m
Waxing Gibbous, 86% of the Moon is Illuminated
Jul 19
Waxing Gibbous
Jul 22
Full
Jul 29
Last Quarter
Aug 6
New
Aug 14
First Quarter

Hourly Weather History & Observations

Time (EDT) Temp. Heat Index Dew Point Humidity Pressure Visibility Wind Dir Wind Speed Gust Speed Precip Events Conditions
12:14 AM 71.6 °F - 69.8 °F 94% 30.06 in 10.0 mi SSW 3.5 mph - N/A   Clear
12:34 AM 71.6 °F - 69.8 °F 94% 30.06 in 10.0 mi SSW 3.5 mph - N/A   Clear
12:54 AM 73.4 °F - 69.8 °F 88% 30.06 in 10.0 mi South 3.5 mph - N/A   Clear
1:14 AM 73.4 °F - 69.8 °F 88% 30.06 in 10.0 mi SSW 3.5 mph - N/A   Clear
1:34 AM 73.4 °F - 69.8 °F 88% 30.06 in 10.0 mi Calm Calm - N/A   Clear
1:54 AM 71.6 °F - 68.0 °F 88% 30.06 in 10.0 mi Calm Calm - N/A   Clear
2:14 AM 71.6 °F - 68.0 °F 88% 30.05 in 10.0 mi Calm Calm - N/A   Clear
2:34 AM 71.6 °F - 68.0 °F 88% 30.05 in 10.0 mi Calm Calm - N/A   Clear
2:54 AM 69.8 °F - 68.0 °F 94% 30.04 in 10.0 mi Calm Calm - N/A   Clear
3:15 AM 69.8 °F - 68.0 °F 94% 30.04 in 10.0 mi Calm Calm - N/A   Clear
3:34 AM 69.8 °F - 68.0 °F 94% 30.04 in 7.0 mi Calm Calm - N/A   Clear
3:54 AM 69.8 °F - 68.0 °F 94% 30.04 in 10.0 mi Calm Calm - N/A   Clear
4:15 AM 69.8 °F - 68.0 °F 94% 30.03 in 10.0 mi SSW 3.5 mph - N/A   Clear
4:34 AM 69.8 °F - 68.0 °F 94% 30.03 in 7.0 mi Calm Calm - N/A   Clear
4:54 AM 71.6 °F - 68.0 °F 88% 30.03 in 7.0 mi SSW 3.5 mph - N/A   Clear
5:15 AM 71.6 °F - 68.0 °F 88% 30.02 in 10.0 mi Calm Calm - N/A   Clear
5:34 AM 71.6 °F - 68.0 °F 88% 30.02 in 7.0 mi Calm Calm - N/A   Clear
5:54 AM 69.8 °F - 68.0 °F 94% 30.02 in 4.0 mi Calm Calm - N/A   Clear
6:15 AM 69.8 °F - 66.2 °F 88% 30.03 in 7.0 mi Calm Calm - N/A   Clear
6:34 AM 69.8 °F - 68.0 °F 94% 30.03 in 5.0 mi Calm Calm - N/A   Clear
6:54 AM 69.8 °F - 68.0 °F 94% 30.03 in 5.0 mi Calm Calm - N/A   Clear
7:15 AM 71.6 °F - 68.0 °F 88% 30.02 in 7.0 mi SW 3.5 mph - N/A   Clear
7:34 AM 71.6 °F - 68.0 °F 88% - - North - - N/A   Unknown
7:54 AM 71.6 °F - 68.0 °F 88% - - North - - N/A   Unknown
8:15 AM - - - N/A% - - North - - N/A   Unknown
8:34 AM - - - N/A% - - North - - N/A   Unknown
8:55 AM - - - N/A% - - North - - N/A   Unknown
9:14 AM - - - N/A% - - North - - N/A   Unknown
9:34 AM 80.6 °F 84.6 °F 71.6 °F 74% 30.03 in 10.0 mi WSW 6.9 mph - N/A   Unknown
9:55 AM 82.4 °F 86.3 °F 69.8 °F 66% 30.03 in 10.0 mi WSW 9.2 mph - N/A   Clear
10:14 AM 84.2 °F 88.4 °F 69.8 °F 62% 30.03 in 10.0 mi WSW 5.8 mph - N/A   Clear
10:34 AM 86.0 °F 91.8 °F 71.6 °F 62% 30.03 in 10.0 mi SW 8.1 mph - N/A   Clear
10:55 AM 86.0 °F 91.8 °F 71.6 °F 62% 30.03 in 10.0 mi WSW 8.1 mph - N/A   Clear
11:14 AM 87.8 °F 93.8 °F 71.6 °F 58% 30.03 in 10.0 mi WSW 6.9 mph - N/A   Clear
11:34 AM 87.8 °F 93.8 °F 71.6 °F 58% 30.03 in 10.0 mi West 6.9 mph - N/A   Scattered Clouds
11:55 AM 87.8 °F 93.8 °F 71.6 °F 58% 30.03 in 10.0 mi WSW 9.2 mph - N/A   Scattered Clouds
12:14 PM 87.8 °F 92.6 °F 69.8 °F 55% 30.02 in 10.0 mi SW 11.5 mph 18.4 mph N/A   Scattered Clouds
12:34 PM 87.8 °F 92.6 °F 69.8 °F 55% 30.01 in 10.0 mi WSW 11.5 mph - N/A   Scattered Clouds
12:55 PM 87.8 °F 92.6 °F 69.8 °F 55% 30.01 in 10.0 mi WSW 10.4 mph 17.3 mph N/A   Scattered Clouds
1:14 PM 87.8 °F 92.6 °F 69.8 °F 55% 30.00 in 10.0 mi WSW 10.4 mph 17.3 mph N/A   Scattered Clouds
1:34 PM 87.8 °F 92.6 °F 69.8 °F 55% 29.98 in 10.0 mi WSW 9.2 mph - N/A   Scattered Clouds
1:55 PM 89.6 °F 93.4 °F 68.0 °F 49% 29.98 in 10.0 mi SW 12.7 mph 16.1 mph N/A   Scattered Clouds
2:14 PM 87.8 °F 92.6 °F 69.8 °F 55% 29.96 in 10.0 mi WSW 10.4 mph 19.6 mph N/A   Scattered Clouds
2:34 PM 89.6 °F 94.7 °F 69.8 °F 52% 29.96 in 10.0 mi WSW 9.2 mph 16.1 mph N/A Thunderstorm Scattered Clouds
2:55 PM 89.6 °F 93.4 °F 68.0 °F 49% 29.96 in 10.0 mi WSW 9.2 mph - N/A Thunderstorm Clear
3:14 PM 89.6 °F 94.7 °F 69.8 °F 52% 29.94 in 10.0 mi WSW 6.9 mph - N/A   Clear
3:34 PM 89.6 °F 93.4 °F 68.0 °F 49% 29.94 in 10.0 mi WSW 9.2 mph 16.1 mph N/A   Scattered Clouds
3:54 PM 89.6 °F 94.7 °F 69.8 °F 52% 29.93 in 10.0 mi WSW 10.4 mph - N/A   Scattered Clouds
4:14 PM 86.0 °F 90.4 °F 69.8 °F 58% 29.92 in 10.0 mi SW 11.5 mph 16.1 mph N/A   Scattered Clouds
4:34 PM 82.4 °F 86.3 °F 69.8 °F 66% 29.92 in 10.0 mi SSW 11.5 mph 16.1 mph N/A   Scattered Clouds
4:54 PM 82.4 °F 86.3 °F 69.8 °F 66% 29.92 in 10.0 mi SSW 9.2 mph 16.1 mph N/A   Clear
5:14 PM 80.6 °F 83.2 °F 68.0 °F 65% 29.91 in 10.0 mi SSW 10.4 mph - N/A   Clear
5:34 PM 82.4 °F 85.4 °F 68.0 °F 62% 29.91 in 10.0 mi SSW 9.2 mph 17.3 mph N/A   Clear
5:54 PM 82.4 °F 85.4 °F 68.0 °F 62% 29.91 in 10.0 mi SSW 10.4 mph - N/A   Clear
6:14 PM 84.2 °F 88.4 °F 69.8 °F 62% 29.91 in 10.0 mi SSW 8.1 mph - N/A   Clear
6:35 PM 82.4 °F 86.3 °F 69.8 °F 66% 29.91 in 10.0 mi SSW 9.2 mph - N/A   Clear
6:54 PM 82.4 °F 86.3 °F 69.8 °F 66% 29.91 in 10.0 mi SSW 9.2 mph - N/A   Clear
7:14 PM 82.4 °F 86.3 °F 69.8 °F 66% 29.90 in 10.0 mi SW 8.1 mph - N/A   Clear
7:35 PM 82.4 °F 86.3 °F 69.8 °F 66% 29.91 in 10.0 mi SSW 8.1 mph - N/A   Clear
7:54 PM 82.4 °F 86.3 °F 69.8 °F 66% 29.91 in 10.0 mi SSW 8.1 mph - N/A   Clear
8:14 PM 80.6 °F 83.9 °F 69.8 °F 70% 29.91 in 10.0 mi SSW 6.9 mph - N/A   Clear
8:35 PM 80.6 °F 83.2 °F 68.0 °F 65% 29.91 in 10.0 mi SSW 8.1 mph - N/A   Clear
8:54 PM 78.8 °F - 69.8 °F 74% 29.91 in 10.0 mi SSW 5.8 mph - N/A   Clear
9:14 PM 78.8 °F - 69.8 °F 74% 29.91 in 10.0 mi SSW 5.8 mph - N/A   Clear
9:35 PM 77.0 °F - 69.8 °F 78% 29.91 in 7.0 mi SSW 6.9 mph - N/A   Clear
9:54 PM 77.0 °F - 68.0 °F 74% 29.91 in 10.0 mi SSW 6.9 mph - N/A   Clear
10:14 PM 77.0 °F - 66.2 °F 69% 29.91 in 10.0 mi SSW 5.8 mph - N/A   Clear
10:35 PM 77.0 °F - 66.2 °F 69% 29.91 in 10.0 mi SSW 8.1 mph - N/A   Clear
10:54 PM 75.2 °F - 66.2 °F 73% 29.92 in 10.0 mi SSW 9.2 mph - N/A   Clear
11:14 PM 73.4 °F - 66.2 °F 78% 29.92 in 7.0 mi SSW 5.8 mph - N/A   Clear
11:35 PM 73.4 °F - 68.0 °F 83% 29.91 in 10.0 mi SSW 8.1 mph - N/A   Clear
11:54 PM 73.4 °F - 68.0 °F 83% 29.92 in 7.0 mi SSW 6.9 mph - N/A   Clear